Regional Weather Roundup
Issued by NWS

Home | Current Version | Previous Version | Text Only | Print | Product List | Glossary On
Versions: 1 2 3 4 5 6 7 8 9 10 11 12 13 14 15 16 17 18 19 20 21 22 23 24 25 26 27 28 29 30 31 32 33 34 35 36 37 38 39 40 41 42 43 44 45 46 47 48 49 50
000
ASUS43 KLSX 011707
RWRMO

WEATHER SUMMARY FOR MISSOURI
NATIONAL WEATHER SERVICE SPRINGFIELD MO
1200 PM CDT FRI JUL 01 2016

NOTE: "FAIR" INDICATES FEW OR NO CLOUDS BELOW 12,000 FEET WITH NO
       SIGNIFICANT WEATHER AND/OR OBSTRUCTIONS TO VISIBILITY.
       CURRENT SKY AND/OR WEATHER CONDITIONS ARE NOT AVAILABLE FOR
       CHILLICOTHE AND FARMINGTON.

MOZ001>031-035>038-043-044-053-054-011800-
...NORTHERN AND WESTERN MISSOURI...

CITY           SKY/WX    TMP DP  RH WIND       PRES   REMARKS
KANSAS CTY INT PTSUNNY   79  51  37 E3        30.15S
KANSAS C DTWN  MOSUNNY   81  55  40 E7        30.13F
LEE`S SUMMIT   PTSUNNY   77  59  53 E9        30.16S
ST JOSEPH      CLOUDY    77  54  44 N6        30.15R
CHILLICOTHE      N/A     76  60  57 CALM      30.15R
KIRKSVILLE     SUNNY     78  52  40 NE10      30.15R

$$
MOZ066>068-077>081-088>096-101>105-011800-
...SOUTHWEST MISSOURI...

CITY           SKY/WX    TMP DP  RH WIND       PRES   REMARKS
SPRINGFIELD    MOSUNNY   81  64  56 N7        30.11R
JOPLIN         MOSUNNY   82  67  60 E9        30.10S
BRANSON        PTSUNNY   81  68  65 NE6       30.12R

$$
MOZ032>034-039>042-045>050-055>058-069>072-011800-
...CENTRAL MISSOURI...

CITY           SKY/WX    TMP DP  RH WIND       PRES   REMARKS
COLUMBIA       MOSUNNY   79  58  48 VRB6      30.13R
JEFFERSON CITY MOSUNNY   78  58  49 VRB6      30.12R
ROLLA          MOSUNNY   77  62  59 CALM      30.12R
SEDALIA        SUNNY     79  61  53 VRB3      30.15S
WHITEMAN AFB   PTSUNNY   78  60  54 E7        30.14R
OSAGE BEACH    SUNNY     77  61  57 NE9       30.13F

$$
MOZ051-052-059>065-011800-
...EAST CENTRAL MISSOURI...

CITY           SKY/WX    TMP DP  RH WIND       PRES   REMARKS
ST LOUIS INTL  MOSUNNY   80  61  52 VRB6G17   30.09R
SPIRIT OF STL  SUNNY     80  61  52 N9        30.08R
ST CHARLES     MOSUNNY   79  62  56 N12       30.08R

$$
MOZ072>076-082>087-097>100-106>115-011800-
...SOUTH CENTRAL AND SOUTHEAST MISSOURI...

CITY           SKY/WX    TMP DP  RH WIND       PRES   REMARKS
CAPE GIRARDEAU PTSUNNY   80  67  64 N15       30.04R
FARMINGTON     PTSUNNY   78  65  63 N12       30.09F
POPLAR BLUFF   MOSUNNY   81  67  62 N10       30.05R
WEST PLAINS    SUNNY     82  65  56 N8        30.11R

$$


USA.gov is the U.S. government's official web portal to all federal, state and local government web resources and services.